Погода в Хомутовской

Россия / Ростовская область     47°02′38″N   40°03′53″E
темп.,
°C
ветер,
м/с
пор.,
м/с
влажн.,
%
обл.,
%
осадки,
мм/ч
давл.,
гПа
погр.,
м
15 августа, пн
пн1500:00+30в715254 0.0 1006510
03:00+25всв6143173 0.0 1007331
06:00+25в614325 0.0 1008347
09:00+32в8112311 0.0 10071117
12:00+37вюв9121520 0.0 10062517
15:00+39вюв8101617 0.0 10052909
18:00+37в6101898 0.0 1004859
21:00+35вюв8141791 0.0 1005892
16 августа, вт
вт1600:00+32вюв8162283 0.0 1006723
03:00+28в7152883 0.0 1007626
06:00+27вюв61427100 0.0 1009667
09:00+30вюв81027100 0.0 1009892
12:00+34ююв662433 0.0 10091660
15:00+32ююз443515 2.3 1009882
18:00+32з554114 0.1 1009623
21:00+26сз48634 0.1 1010253
17 августа, ср
ср1700:00+25зсз49620 0.0 1010224
03:00+23з36710 0.3 1009126
06:00+23зюз3775100 0.0 1010174
09:00+29з44455 0.0 1010784
12:00+33зюз443265 0.0 10091630
15:00+35зсз54293 0.0 10082224
18:00+32зсз55340 0.0 1008608
21:00+26зсз36520 0.0 1008120
18 августа, чт
чт1800:00+24сз36574 0.0 1008112
03:00+24зсз335664 0.0 100749
06:00+23юз356681 0.0 1008101
09:00+30юз3440100 0.0 1008602
12:00+34зюз4328100 0.1 10081792
15:00+36зюз342416 0.1 10072683
18:00+33зсз65292 0.0 1007615
21:00+26сз24561 0.2 100884
19 августа, пт
пт1900:00+25зюз22591 0.1 100822
03:00+23ю35641 0.1 100892
06:00+23ююз23650 0.0 100857
09:00+29ююв33450 0.0 1009729
12:00+34ю113193 0.0 10081775
15:00+35вюв1230100 0.1 10082739
18:00+29св694997 1.1 1008491
21:00+24вюв51172100 5.1 1010255